OPS 4682 DEB, 18783

Orbit data source: Space-Track

OPS 4682 DEB, 18783 is space debris in LEO originally from a launch on Sat, 03 Apr 1965 UTC launched from the Air Force Western Test Range (AFWTR). Debris objects in space refer to the collection of defunct objects orbiting the Earth. Examples of debris include non-operational satellites, rocket bodies, and fragments generated from explosions, collisions, or faulty payload assembly.

Loading next visibility...
Identifier
18783, 1965-027AK
Orbit
LEO
Last TLE update
10 hours ago
Origin
Manufacturer
Unknown
Mission
Spacecraft
Bus & Motor
Unknown
Mass
Unknown
Launch date (UTC)
1965-04-03 (60 years ago)
Launch vehicle
Unknown
Launch site
Air Force Western Test Range (AFWTR)
Object type
Payload
Rocket body
Debris
Shape & HBR
Unknown
Radar Cross Section
Small (<0.1 m²)

Expand to show TLE details & history

TLE from 10 hours ago
0 OPS 4682 DEB
1 18783U 65027AK  25182.00167235 -.00000231  00000-0 -78603-3 0  9994
2 18783  90.2534  17.8212 0029493  58.0978  97.3529 13.00615816771356
Epoch: 2025-07-01T00:02Z
TLE epoch observation values (Epoch: 2025-07-01T00:02:24.491Z)
Latitude
24.23558°
Longitude
-81.97074°
Altitude
1,265.553 km
Speed
7.223 km/s
True Right ascension
13h 11m 44s
True Declination
24° 06' 56"
Sunlit
Object was in daylight at epoch
Visualization orbit readout
Latitude
-36.69041°
Longitude
98.11348°
Altitude
1,274.874 km
Speed
7.217 km/s
Apparent Right ascension
04h 36m 34s
Apparent Declination
-60° 18' 31"
Sunlit
Object is in daylight
Visualization observer readout
Local Sidereal Time
21:46:32
Azimuth
141.013° SSE
Elevation
-39.77°
Doppler factor
1
Orbital elements
Apogee altitude
1,279.319 km
Perigee altitude
1,234.283 km
Semi-major axis
7,634.938 km
Eccentricity
0.00295
Inclination
90.2534°
RAAN
17.8212°
Arg. of periapsis
58.0978°
True anomaly
Unknown
Mean anomaly
97.3529°
Eccentric anomaly
Unknown
Mean motion
3.25338 °/min
Orbital period
110.65 mins
BSTAR
-0.00078603
Loading maneuver chart data...
Loading SW <> Apogee altitude chart data...
Loading historical data...
Loading historical data...
Loading historical data...
Loading historical data...
Loading historical data...
Loading historical data...
Loading historical data...

OPS 4682 DEB Visibility forecast

Observer location: undefined°, undefined°

Span
Click to sort rows by Start time (UTC) header in descending order
Start Az.
Max El. time (UTC)
Max El. Az.
Max El.
End time (UTC)
End Az.
12 mins2025-07-01 12:17:08.373Z131.395° SE2025-07-01 12:23:08.373Z72.988° E27.267°2025-07-01 12:29:08.373Z17.675° NNE
13 mins2025-07-01 14:07:08.373Z203.667° SW2025-07-01 14:13:08.373Z273.763° WNW36.497°2025-07-01 14:20:08.373Z346.057° N
9 mins2025-07-01 23:53:08.373Z39.721° NE2025-07-01 23:57:08.373Z76.382° E19.473°2025-07-02 00:02:08.373Z121.013° SE
13 mins2025-07-02 01:42:08.373Z356.558° N2025-07-02 01:48:08.373Z290.85° WNW43.222°2025-07-02 01:55:08.373Z195.467° SSW
|